Regional Weather Roundup
Issued by NWS

Home | Current Version | Previous Version | Graphics & Text | Print | Product List | Glossary On
Versions: 1 2 3 4 5 6 7 8 9 10 11 12 13 14 15 16 17 18 19 20 21 22 23 24 25 26 27 28 29 30 31 32 33 34 35 36 37 38 39 40 41 42 43 44 45 46 47 48 49 50
000
ASUS43 KMKX 182321
RWRWI

WISCONSIN REGIONAL WEATHER ROUNDUP
NATIONAL WEATHER SERVICE MILWAUKEE/SULLIVAN WI
600 PM CDT FRI APR 18 2014

NOTE: "FAIR" INDICATES FEW OR NO CLOUDS BELOW 12,000 FEET WITH NO
SIGNIFICANT WEATHER AND/OR OBSTRUCTIONS TO VISIBILITY.

WIZ001-002-006>008-014>016-023>028-190000-
NORTHWEST WISCONSIN

CITY           SKY/WX    TMP DP  RH WIND       PRES   REMARKS
SUPERIOR ARPT  SUNNY     35  25  68 NE9       30.36F WCI  27
ASHLAND        SUNNY     36  22  56 NE10      30.39S WCI  28
HAYWARD        SUNNY     44  17  33 E7        30.33S
SIREN          MOSUNNY   46  18  33 E6        30.30F
RICE LAKE      SUNNY     46  19  33 E6        30.33F
LADYSMITH      SUNNY     47  21  35 E6        30.34F
EAU CLAIRE     MOSUNNY   51  21  30 NE10      30.30F
MENOMONIE      MOCLDY    51  24  35 E9        30.30F
NEW RICHMOND   CLOUDY    49  26  41 E10       30.28F
OSCEOLA        CLOUDY    45  28  50 E9        30.30F
$$

WIZ003>005-009-010-017-018-190000-
NORTH CENTRAL WISCONSIN

CITY           SKY/WX    TMP DP  RH WIND       PRES   REMARKS
WOODRUFF       SUNNY     46  20  36 NE3       30.34S
RHINELANDER    SUNNY     41  14  33 VRB5      30.35R
EAGLE RIVER    SUNNY     40  22  50 E7        30.34S WCI  35
LAND O LAKES   SUNNY     39  23  52 CALM      30.35F
PHILLIPS       MOSUNNY   42  18  37 CALM      30.33S
TOMAHAWK       SUNNY     44  12  27 CALM      30.34S
MEDFORD        SUNNY     46  19  34 CALM      30.32F
MERRILL        SUNNY     46  17  32 CALM      30.34S
$$

WIZ029-030-035-036-043>047-190000-
CENTRAL WISCONSIN

CITY           SKY/WX    TMP DP  RH WIND       PRES   REMARKS
WAUSAU         SUNNY     48  19  31 CALM      30.32S
MOSINEE        SUNNY     46  21  36 NE5       30.34S
MARSHFIELD     SUNNY     50  22  33 NE5       30.32S
STEVENS POINT  SUNNY     48  21  33 NE5       30.33S
WAUPACA        SUNNY     54  18  24 NE6       30.34R
WAUTOMA        SUNNY     54  22  28 N5        30.33S
WISC RAPIDS    SUNNY     52  22  30 NE7       30.33F
CAMP DOUGLAS   SUNNY     55  24  31 VRB7      30.31S
$$

WIZ011>013-019>022-031-037>040-048>050-190000-
NORTHEAST WISCONSIN

CITY           SKY/WX    TMP DP  RH WIND       PRES   REMARKS
ANTIGO         SUNNY     43  20  39 CALM      30.34S
STURGEON BAY   SUNNY     41  27  56 E8        30.39R
GREEN BAY      SUNNY     47  30  51 NE12      30.36S
MANITOWOC      SUNNY     38  29  70 E9        30.39S WCI  31
APPLETON       MOSUNNY   50  19  29 CALM      30.34S
CLINTONVILLE   SUNNY     50  19  29 NW6       30.34S
OSHKOSH        SUNNY     48  26  42 E7        30.34F
$$

WIZ032>034-041-042-053>061-190000-
SOUTHWEST WISCONSIN

CITY           SKY/WX    TMP DP  RH WIND       PRES   REMARKS
LA CROSSE      MOSUNNY   54  26  34 N5        30.29F
SPARTA         SUNNY     55  23  29 E8        30.31F
VIROQUA        FAIR      53  26  35 CALM      30.29F
BOSCOBEL       SUNNY     60  25  26 N5        30.29F
PRAIRIE DU CHI SUNNY     58  25  28 E3        30.28S
PLATTEVILLE    FAIR      57  29  34 CALM      30.29S
$$

WIZ056-057-062-063-064-067-068-190000-
SOUTH CENTRAL WISCONSIN

CITY           SKY/WX    TMP DP  RH WIND       PRES   REMARKS
BARABOO/DELLS  SUNNY     55  24  29 E3        30.31S
LONE ROCK      SUNNY     56  29  35 SE6       30.30S
WATERTOWN      SUNNY     51  30  44 NE7       30.32S
MADISON        MOSUNNY   55  26  32 E3        30.32S
MIDDLETON      FAIR      55  22  27 CALM      30.32R
MONROE         SUNNY     56  29  35 NE5       30.30S
JANESVILLE     SUNNY     57  27  30 NE12      30.30F
$$

WIZ051-052-058>065-066-070>072-190000-
SOUTHEAST WISCONSIN

CITY           SKY/WX    TMP DP  RH WIND       PRES   REMARKS
MILWAUKEE      MOSUNNY   38  28  67 NE10      30.39R WCI  31
WAUKESHA       SUNNY     43  30  61 NE12      30.36R
MILWAUKEE/TIMM SUNNY     39  27  60 NE8       30.38R WCI  34
RACINE         SUNNY     39  30  70 NE10      30.39R WCI  32
BURLINGTON     SUNNY     45  33  63 E12       30.34S
KENOSHA        SUNNY     40  31  70 E14       30.36S WCI  32
FOND DU LAC    SUNNY     49  26  41 NE8       30.34F
SHEBOYGAN      SUNNY     38  27  64 E8        30.38S WCI  32
WEST BEND      SUNNY     41  30  65 E9        30.36S
JUNEAU         SUNNY     50  24  36 N7        30.34S
$$

LSZ147-162-190000-
LAKE SUPERIOR

STATION/POSITION TIME  TEMP    WIND        PRES    WAVE
                       AIR SEA DIR/SP/G            HT/PER
                 (UTC) (F)     (DEG/KT/KT) (MB)    (FT/S)
DEVILS ISLAND    2300   33      CALM  /  1 1030.3F
PORT WING        2240   35      30/ 14/ 16 1028.1F
SAXON HARBOR     2240           40/  8/  9 1029.1F
$$

LMZ867-665-643>646-190000-
LAKE MICHIGAN

STATION/POSITION TIME  TEMP    WIND        PRES    WAVE
                       AIR SEA DIR/SP/G            HT/PER
                 (UTC) (F)     (DEG/KT/KT) (MB)    (FT/S)
NORTHPORT PIER   2200   36     150/  5/  7 1028.8R
SISTER BAY       2223   45      30/  9/ 13   N/A
KEWAUNEE LAKESHO 2300   36     120/  4/  6 1029.6R
SHEBOYGAN LAKESH 2300   36      50/  7/  8 1029.8S
PORT WASHINGTON  2200   38      60/  7/ 10 1029.1S
MILWAUKEE LAKESH 2300   35      50/  8/  9   N/A
KENOSHA   LAKESH 2300   36      30/ 12/ 14   N/A
$$

TC  - TEMPERATURE IN CELSIUS
VSB - VISIBILITY IN STATUTE MILES
WCI - WIND CHILL INDEX
HX  - HEAT INDEX




USA.gov is the U.S. government's official web portal to all federal, state and local government web resources and services.